Flag for U.S.A. Weather past 2 weeks in Montgomery, Alabama, U.S.A.

Now
74 °F

Clear.


Feels Like: 73 °F
Forecast: 72 / 93 °F
Wind: 2 mph from Northeast

Location: Maxwell Air Force Base / Montgomery

Current Time: Aug 2, 2015 at 6:04:00 AM

Latest Report: Aug 2, 2015 at 4:58 AM


Visibility: 10 mi

Pressure: 29.89 "Hg

Humidity: 88%

Dew point: 70 °F

Location of MontgomeryLocation

Historic Weather in Montgomery — Graph

°F

Montgomery temperature yesterday

Maximum temperature yesterday: 95 °F (at 4:58 PM)
Minimum temperature yesterday: 71 °F (at 5:58 AM)
Average temperature yesterday: 83 °F

Past Weeks' High & Low Weather Summary

 TemperatureHumidityPressure
High98 °F (Jul 30, 2:58 PM)100% (Jul 20, 3:03 AM)30.04 "Hg (Jul 20, 3:03 AM)
Low71 °F (Aug 1, 5:58 AM)45% (Jul 26, 4:58 PM)29.83 "Hg (Jul 21, 3:58 PM)
Average83 °F76%29.94 "Hg
* Reported Jul 18 4:58 AM — Aug 2 4:58 AM, Montgomery, Weather by CustomWeather, © 2015

Note: Actual official high and low records may vary slightly from our data, if they occured in-between our weather recording intervals... More about our weather records

Advertising

Montgomery weather history for previous 24 hours

 ConditionsComfort  
Time TempWeatherWind HumidityBarometerVisibility
4:58 AM
Sun, Aug 2
74 °FClear.2 mph88%29.89 "Hg10 mi
3:58 AM74 °FClear.3 mph93%29.88 "Hg10 mi
2:58 AM75 °FClear.6 mph89%29.87 "Hg10 mi
1:58 AM75 °FClear.3 mph91%29.88 "Hg10 mi
12:58 AM77 °FClear.1 mph88%29.90 "Hg10 mi
11:58 PM
Sat, Aug 1
80 °FClear.5 mph81%29.90 "Hg10 mi
10:58 PM83 °FClear.10 mph66%29.90 "Hg10 mi
9:58 PM85 °FPassing clouds.5 mph60%29.89 "Hg10 mi
8:58 PM87 °FPassing clouds.6 mph57%29.89 "Hg10 mi
7:58 PM88 °FSunny.5 mph60%29.87 "Hg10 mi
6:58 PM91 °FSunny.7 mph55%29.85 "Hg10 mi
5:58 PM92 °FSunny.7 mph52%29.85 "Hg10 mi
4:58 PM95 °FSunny.9 mph47%29.85 "Hg10 mi
3:58 PM94 °FSunny.6 mph47%29.86 "Hg10 mi
2:58 PM94 °FSunny.9 mph47%29.88 "Hg10 mi
1:58 PM93 °FSunny.8 mph46%29.90 "Hg10 mi
12:58 PM90 °FSunny.6 mph51%29.91 "Hg10 mi
11:58 AM87 °FSunny.5 mph53%29.93 "Hg10 mi
10:58 AM85 °FSunny.7 mph55%29.93 "Hg10 mi
9:58 AM82 °FSunny.3 mph58%29.94 "Hg10 mi
8:58 AM78 °FSunny.6 mph63%29.94 "Hg10 mi
7:58 AM76 °FSunny.6 mph66%29.93 "Hg10 mi
6:58 AM73 °FClear.7 mph72%29.93 "Hg10 mi
Weather by CustomWeather, © 2015

See weather overviewHow to use our weather pages